Погода в Шемахе

Россия / Челябинская область     56°14′30″N   59°15′48″E
темп.,
°C
ветер,
м/с
пор.,
м/с
влажн.,
%
обл.,
%
осадки,
мм/ч
давл.,
гПа
погр.,
м
20 апреля, вт
вт2023:00−3юв11530 0.0 103410
02:00−4ю00574 0.0 103510
05:00−4зсз115825 0.0 103610
08:000зсз23445 0.0 1035297
11:00+4зсз34345 0.0 10341263
14:00+7зсз45325 0.0 10321519
17:00+7сз45340 0.0 10311522
20:00+3сз22540 0.0 103136
21 апреля, ср
ср2123:000зсз11630 0.0 103210
02:00−1сз11680 0.0 103310
05:00−1с11710 0.0 103310
08:00+2з23590 0.0 1034228
11:00+8сз22440 0.0 1033827
14:00+11з113753 0.0 10321221
17:00+11ююв223635 0.0 10311253
20:00+7ююв225393 0.0 103110
22 апреля, чт
чт2223:00+4вюв226589 0.0 103224
02:00+3вюв2368100 0.0 103243
05:00+2юв2269100 0.0 103326
08:00+5юв2462100 0.0 1033137
11:00+7юв3551100 0.0 1032337
14:00+11ю4739100 0.0 10311263
17:00+11ю4639100 0.0 10311396
20:00+7ююв4856100 0.0 1032298
23 апреля, пт
пт2323:00+6ююв2564100 0.0 1032125
02:00+5ююв2565100 0.0 1031112
05:00+4ююз3886100 0.4 1032588
08:00+4ююв398897 1.6 1031665
11:00+7ююз4775100 1.6 10301037
14:00+7юз347698 0.4 1030964
17:00+7ююз2674100 0.8 1029845
20:00+6зюз1183100 0.0 102910
24 апреля, сб
сб2423:00+5всв2286100 0.0 102838
02:00+5в2386100 0.0 102675
05:00+6юв3895100 0.4 1024414
08:00+6ююв4888100 0.8 1023884
11:00+7ююв4880100 0.9 1021944
14:00+7юв5884100 0.5 10201002
17:00+6юв4890100 1.6 1019789
20:00+6вюв4987100 0.8 1018774